Regional Weather Roundup
Issued by NWS

Home | Current Version | Previous Version | Text Only | Print | Product List | Glossary Off
Versions: 1 2 3 4 5 6 7 8 9 10 11 12 13 14 15 16 17 18 19 20 21 22 23 24 25 26 27 28 29 30 31 32 33 34 35 36 37 38 39 40 41 42 43 44 45 46 47 48 49 50

000
ASUS43 KIND 151900
RWRIN

WEATHER ROUNDUP FOR INDIANA
NATIONAL WEATHER SERVICE INDIANAPOLIS IN
300 PM EDT TUE AUG 15 2017

NOTE: "FAIR" INDICATES FEW OR NO CLOUDS BELOW 12,000 FEET WITH NO
SIGNIFICANT WEATHER AND/OR OBSTRUCTIONS TO VISIBILITY.

* - STATION DOES NOT REPORT WEATHER SUCH AS PRECIPITATION OR FOG.

+ - STATION NOT QUALITY CONTROLLED BY THE NATIONAL WEATHER SERVICE.
    USE DATA WITH CAUTION...ESPECIALLY DEWPOINT AND RELATIVE
    HUMIDITY OBSERVATIONS.

INZ001>003-010>013-019-020-152000-
NORTHWEST INDIANA

CITY           SKY/WX    TMP DP  RH WIND       PRES   REMARKS
GARY /AIRPORT/ MOSUNNY   81  66  61 NE5       29.95R
MICHIGAN CITY+ SUNNY     81  64  57 N7        29.95R
MONTICELLO +   MOSUNNY   84  67  57 W6        29.92F
RENSSELAER +   MOSUNNY   82  63  51 SW9       29.93S

$$

LMZ046-743>745-152000-
SOUTHERN LAKE MICHIGAN

STATION/POSITION TIME  TEMP    WIND        PRES    WAVE
                       AIR SEA DIR/SP/G            HT
                 (UTC) (F)     (DEG/KT/KT) (MB)    (FT)
BURNS HARBOR     1840   73      10/  7/  8 1014.2S
MICHIGAN CITY    1830   76     340/  6/  6   N/A
5NW MICH CITY    1850   73 75  360/  6/  8   N/A     1

$$

INZ004-005-014>016-021>024-152000-
NORTH CENTRAL INDIANA

CITY           SKY/WX    TMP DP  RH WIND       PRES   REMARKS
ELKHART        MOSUNNY   82  64  54 N9        29.92S
GOSHEN         SUNNY     84  62  47 W10       29.92F
PERU/GRISSOM   MOSUNNY   84  69  61 W9        29.92F
SOUTH BEND     MOSUNNY   82  66  58 NW10      29.93S

$$

INZ006>009-017-018-025>027-152000-
NORTHEAST INDIANA

CITY           SKY/WX    TMP DP  RH WIND       PRES   REMARKS
FORT WAYNE     PTSUNNY   85  65  51 W13       29.94S
KENDALLVILLE + MOSUNNY   80  66  61 W8        29.93F

$$

INZ028-029-035-036-043>045-051>053-152000-
WEST CENTRAL INDIANA

CITY           SKY/WX    TMP DP  RH WIND       PRES   REMARKS
LAFAYETTE      MOSUNNY   82  70  66 W7        29.92F
TERRE HAUTE    PTSUNNY   87  68  52 SW7       29.94S

$$

INZ030>032-037>040-046>048-054>057-064-065-152000-
CENTRAL INDIANA

CITY           SKY/WX    TMP DP  RH WIND       PRES   REMARKS
ANDERSON       PTSUNNY   82  66  57 MISG      29.95F
GREENWOOD *+   CLOUDY    84  65  53 W6        29.95S
INDIANAPOLIS   PTSUNNY   86  66  51 W10G16    29.93F
-EAGLE CREEK   MOSUNNY   85  66  53 VRB5      29.93F
KOKOMO +       CLOUDY    81  69  67 NW9       29.95S
MT COMFORT *+  PTSUNNY   84  68  58 SW3       29.94S
SHELBYVILLE    MOSUNNY   86  67  52 VRB5      29.94S

$$

INZ033-034-041-042-049-050-058-059-152000-
EAST CENTRAL INDIANA

CITY           SKY/WX    TMP DP  RH WIND       PRES   REMARKS
MUNCIE         SUNNY     86  67  52 W12       29.94S
RICHMOND +     MOSUNNY   81  66  61 W7        29.96F

$$

INZ060-061-067>069-081>083-085>088-152000-
SOUTHWEST INDIANA

CITY           SKY/WX    TMP DP  RH WIND       PRES   REMARKS
EVANSVILLE     CLOUDY    85  70  60 W6        29.95S
HUNTINGBURG *+ CLOUDY    85  73  67 SW6       29.95F

$$

INZ062-063-066-070>080-084-089>092-152000-
SOUTH CENTRAL AND SOUTHEAST INDIANA

CITY           SKY/WX    TMP DP  RH WIND       PRES   REMARKS
BLOOMINGTON    PTSUNNY   83  66  56 SW6       29.95S
MADISON *+     MOSUNNY   82  64  54 W5        29.98S
SEYMOUR +      SUNNY     86  68  54 SW6       29.95F

$$





USA.gov is the U.S. government's official web portal to all federal, state and local government web resources and services.